STOCKHOLM/BROMMA current weather conditions

sailwx.info

Wind from 120 at 17 knots

Air temperature 3.0° C
Visibility: greater than 5.4 NM
Dewpoint 1.0° C
Present weather: Light rain.

Last reported at 2017-Nov-22 19:50 UTC.
Time now 2017-Nov-22 20:45 UTC

Location: N 59°21' E 017°57'.
View on Google Maps.

See reports from other nearby stations

  
Tides and Currents Weather Stations Pressure Air Temp Water Temp Dewpoint Dewpoint Depression Visibility Wind Speed Wind Dir Waves Ship Positions
date/time (UTC)wind fromknots sea level pressurealtimeterstation pressurevisibilityair tempwater tempwave heightnotes
2017-Nov-22 19:50 120 17 5.4 3.0 Light rain.
2017-Nov-22 19:20 120 12 5.4 3.0 Light rain drizzle.
2017-Nov-22 18:50 120 14 5.4 3.0 Light drizzle.
2017-Nov-22 18:20 120 13 5.4 2.0 Light rain.
2017-Nov-22 17:50 140 7 5.4 2.0 Light rain.
2017-Nov-22 17:20 120 9 5.4 3.0 Light rain.
2017-Nov-22 16:50 110 11 5.4 3.0
2017-Nov-22 16:20 110 11 5.4 3.0
2017-Nov-22 15:50 120 9 5.4 2.0 Light rain.
2017-Nov-22 15:20 110 8 5.4 2.0 Light rain.
2017-Nov-22 14:50 170 6 4.3 1.0 Light drizzle snow.
2017-Nov-22 14:20 110 12 5.4 2.0 Light rain.
2017-Nov-22 13:50 110 9 5.4 2.0
2017-Nov-22 13:20 100 8 5.4 2.0
2017-Nov-22 12:50 090 5 5.4 1.0
2017-Nov-22 12:20 070 5 5.4-0.0
2017-Nov-22 11:50 080 5 5.4-1.0
2017-Nov-22 11:20 070 4 5.4-1.0
2017-Nov-22 10:50 060 4 2.0-2.0 Mist.
2017-Nov-22 10:20 060 4 1.6-2.0 Mist.
2017-Nov-22 09:50 060 4 1.6-2.0 Mist.
2017-Nov-22 09:20 1.1-3.0 Mist.
2017-Nov-22 08:50 060 2 1.6-3.0 Mist.
2017-Nov-22 08:20 060 2 1.6-3.0 Mist.
2017-Nov-22 07:50 3.2-4.0 Mist.
2017-Nov-22 07:20 090 2 5.4-4.0 Mist. Snow grains.
2017-Nov-22 06:50 040 1 5.4-5.0
2017-Nov-22 06:20 4.3-5.0 Mist.
2017-Nov-22 05:50 5.4-5.0 Mist.
2017-Nov-22 05:20 5.4-5.0
2017-Nov-22 04:50 4.3-5.0 Mist.
2017-Nov-22 04:20 010 2 3.2-5.0 Mist.
2017-Nov-22 03:50 290 0 1.2-5.0 Mist.
2017-Nov-22 03:20 2.4-5.0 Mist.
2017-Nov-22 02:50 010 2 0.9-5.0 Mist.
2017-Nov-22 02:20 330 1 3.8-5.0
2017-Nov-22 01:50 280 1 1.3-4.0
2017-Nov-22 01:20 0.3-4.0 Fog.
2017-Nov-22 00:50 290 2 0.3-4.0 Fog.
2017-Nov-22 00:20 300 4 1.3-5.0 Mist.
2017-Nov-21 23:50 320 2 5.4-4.0
2017-Nov-21 23:20 310 4 5.4-4.0
2017-Nov-21 22:50 290 4 5.4-4.0
2017-Nov-21 22:20 320 2 5.4-4.0
2017-Nov-21 21:50 5.4-4.0
2017-Nov-21 21:20 320 2 5.4-4.0
2017-Nov-21 20:50 300 2 5.4-4.0
2017-Nov-21 20:20 320 4 5.4-4.0
2017-Nov-21 19:50 310 5 5.4-3.0
2017-Nov-21 19:20 280 6 5.4-3.0
2017-Nov-21 18:50 300 4 5.4-3.0
2017-Nov-21 18:20 290 6 5.4-3.0
2017-Nov-21 17:50 290 5 5.4-3.0
2017-Nov-21 17:20 310 5 5.4-2.0
2017-Nov-21 16:50 300 5 5.4-2.0
2017-Nov-21 16:20 300 4 5.4-3.0
2017-Nov-21 15:50 310 6 5.4-3.0
2017-Nov-21 15:20 310 6 5.4-3.0
2017-Nov-21 14:50 300 5 5.4-3.0
2017-Nov-21 14:20 310 5 5.4-3.0
2017-Nov-21 13:50 290 7 5.4-3.0
2017-Nov-21 13:20 320 6 5.4-2.0
2017-Nov-21 12:50 320 5 5.4-3.0
2017-Nov-21 12:20 320 7 5.4-2.0
2017-Nov-21 11:50 300 5 5.4-2.0
2017-Nov-21 11:20 310 6 5.4-2.0
2017-Nov-21 10:50 300 6 4.9-1.0
2017-Nov-21 10:20 310 5 2.7-2.0 Light snow.
2017-Nov-21 09:50 310 6 2.7-2.0 Light snow.
2017-Nov-21 09:20 320 5 1.1-2.0 Light snow.
2017-Nov-21 08:50 320 5 0.8-1.0 Snow.
2017-Nov-21 08:20 310 4 0.9-1.0 Light snow.
2017-Nov-21 07:50 300 4 1.1-1.0 Light snow.
2017-Nov-21 07:20 310 4 0.6-1.0 Snow.
2017-Nov-21 06:50 310 4 1.7-1.0 Light snow.
2017-Nov-21 06:20 310 4 1.7-1.0 Light snow.
2017-Nov-21 05:50 320 5 2.2-1.0 Light snow.
2017-Nov-21 05:20 320 5 2.2-1.0 Light snow.
2017-Nov-21 04:50 320 5 3.2-1.0 Light snow.
2017-Nov-21 04:20 330 5 3.8-1.0 Light snow.
2017-Nov-21 03:50 320 5 3.8-1.0 Light snow.
2017-Nov-21 03:20 310 5 1.9-1.0 Light snow.
2017-Nov-21 02:50 320 5 4.9-1.0 Light snow.
2017-Nov-21 02:20 330 5 5.4-1.0 Light snow.
2017-Nov-21 01:50 320 5 5.4-1.0
2017-Nov-21 01:20 310 6 5.4-1.0
2017-Nov-21 00:50 320 5 5.4-1.0
2017-Nov-21 00:20 320 6 5.4-1.0 Light snow.
2017-Nov-20 23:50 310 6 5.4-1.0 Light snow.
2017-Nov-20 23:20 310 4 5.4-1.0 Snow grains.
2017-Nov-20 22:50 290 5 5.4-1.0
2017-Nov-20 22:20 290 6 5.4-1.0
2017-Nov-20 21:50 290 5 4.9-1.0 Mist.
2017-Nov-20 21:20 280 5 5.4-1.0
2017-Nov-20 20:50 300 5 5.4-1.0
2017-Nov-20 20:20 330 5 5.4-1.0